JILIN-01 GAOFEN 3F (46458 NORAD) Tracking and Keplerian Element Data

This shows tracking and keplerian element data for the satellite.

Feedback or suggestion? Click here.




ElementValue
Catalog46458
NameJILIN-01 GAOFEN 3F
Epoch Orbit1088
Epoch Day331.15919471
Epoch Year2020
RAAN25.4905
Inclination97.5221
Eccentricity0.0015026
Argument of Perigee49.985
Mean Anonmoly324.8815
Mean Motion15.09450002
Decay Rate3.84E-06
L11 46458U 20065E 20331.15919471 .00000384 00000-0 27856-4 0 9993
L22 46458 97.5221 25.4905 0015026 49.9850 324.8815 15.09450002 10883

Live tracking and technical data element details for JILIN-01 GAOFEN 3F (NORAD 46458). JILIN-01 GAOFEN 3F can be tracked NOW for your location showing map with azimuth and elevation plus other details from your city location.

Track the satellite on the map from your city or location and see movement details for azimuth, elevation, latitude, longitude, range, height, and movement on the map or in text.







IsCatalogInMostPopularTable: catalog: 46458, numindb: 24
Update: records affected: 1



GetName: 46458 JILIN-01 GAOFEN 3F

Hit Count: updated at: Thu, 26 Nov 2020 23:40:59 GMT